STARLINK-11555, 62915

Orbit data source: Space-Track

STARLINK-11555, 62915 is a payload satellite owned by SpaceX/Seattle (US) in LEO that was launched on Sat, 08 Feb 2025 UTC via an FALCON 9 launch vehicle from the Air Force Eastern Test Range (AFETR). Payload-class satellites include a variety of spacecraft equipped with specific instruments for various scientific and technological missions. These include communications satellites like Starlink; space stations such as the ISS; scientific satellites like the Hubble; Earth observation satellites from companies like Planet Labs, Umbra, and HawkEye 360; GPS; miniature CubeSats for education and research; and military/defense satellites.

Loading next visibility...
Identifier
62915, 2025-027J
Orbit
LEO
Country
Flag of USUS
Related business
Manufacturer
SpaceX/Seattle
Mission
Operational Commercial Communications
Bus & Motor
STARLINK V2MD, Unknown motor
Mass
960 kg wet, ~910 kg dry
Launch date (UTC)
2025-02-08 (1 year ago)
Launch vehicle
FALCON 9
Launch site
Air Force Eastern Test Range (AFETR)
Object type
Payload
Rocket body
Debris
Shape & HBR
Box + 2 Pan, 18.1 m
Radar Cross Section
36.964 m², Large (>1 m²)

Expand to show TLE details & history
Last TLE update: 19 hours ago

TLE from 19 hours ago
0 STARLINK-11555
1 62915U 25027J   26037.49948509  .00264055  00000-0  19995-2 0  9992
2 62915  42.9981 175.9425 0000872 279.1605  80.9164 15.70805573 58280
Epoch: 2026-02-06T11:59Z
TLE epoch observation values (Epoch: 2026-02-06T11:59:15.511Z)
Latitude
-0.00003°
Longitude
-140.50864°
Altitude
356.272 km
Speed
7.697 km/s
True Right ascension
11h 43m 46s
True Declination
0° 00' 00"
Sunlit
Object was in full shadow at epoch
Visualization orbit readout
Latitude
Unknown
Longitude
Unknown
Altitude
Unknown
Speed
Unknown
Apparent Right ascension
Unknown
Apparent Declination
Unknown
Sunlit
N/A
Visualization observer readout
Local Sidereal Time
09:29:11
Azimuth
Unknown
Elevation
Unknown
Doppler factor
Unknown
Orbital elements
Apogee altitude
359.163 km
Perigee altitude
357.988 km
Semi-major axis
6,736.712 km
Eccentricity
0.00009
Inclination
42.9981°
RAAN
175.9425°
Arg. of periapsis
279.1605°
True anomaly
80.92627°
Mean anomaly
80.9164°
Eccentric anomaly
80.92133°
Mean motion
3.92528 °/min
Orbital period
91.71 mins
BSTAR
0.0019995
Loading maneuver chart data...
Computing Atmospheric mass density...
Loading historical data...
Loading historical data...
Loading historical data...
Loading historical data...
Loading historical data...
Loading historical data...
Loading historical data...

Documentation

Showing up to 5 results
|